Weather History for Dalhart, TX

Change the Weather History Date:

Saturday, April 27, 2013

  Actual Average Record
Temperature  
Mean Temperature 60 °F 57 °F  
Max Temperature 81 °F 73 °F 89 °F (1953)
Min Temperature 39 °F 42 °F 28 °F (1994)
Degree Days  
Heating Degree Days 5 8  
Month to date heating degree days 421 324  
Since 1 July heating degree days 4279 4578  
Cooling Degree Days 0 0  
Month to date cooling degree days 1 0  
Year to date cooling degree days 1 0  
Growing Degree Days 9 (Base 50)    
Moisture  
Dew Point 29 °F    
Average Humidity 46    
Maximum Humidity 79    
Minimum Humidity 12    
Precipitation  
Precipitation 0.00 in 0.04 in 0.66 in (1949)
Month to date precipitation T 0.95  
Year to date precipitation 0.86 3.04  
Snow  
Snow 0.00 in 0.10 in T in (1994)
Month to date snowfall T 1.2  
Since 1 July snowfall 21.6 18.9  
Snow Depth 0.00 in    
Sea Level Pressure  
Sea Level Pressure 30.05 in    
Wind  
Wind Speed 9 mph (West)    
Max Wind Speed 29 mph    
Max Gust Speed 36 mph    
Visibility 8 miles    
Events      
T = Trace of Precipitation, MM = Missing Value Source: NWS Daily Summary

Daily Weather History Graph

Daily Weather History Graph

Search for Another Location

Airport:

Trip Planner

Search our weather history database for the weather conditions in past years. The results will help you decide how hot, cold, wet, or windy it might be!

Date:

Astronomy

Apr. 27, 2013 Rise Set
Actual Time 7:01 AM CDT 8:34 PM CDT
Civil Twilight 6:34 AM CDT 9:01 PM CDT
Nautical Twilight 6:01 AM CDT 9:34 PM CDT
Astronomical Twilight 5:27 AM CDT 10:08 PM CDT
Moon 11:02 PM CDT (4/27) 8:25 AM CDT (4/27)
Length of Visible Light 14h 27m
Length of Day
13h 32m
Waning Gibbous, 95% of the Moon is Illuminated
Apr 27
Waning Gibbous
May 2
Last Quarter
May 9
New
May 17
First Quarter
May 24
Full

Hourly Weather History & Observations

Time (CDT) Temp. Windchill Dew Point Humidity Pressure Visibility Wind Dir Wind Speed Gust Speed Precip Events Conditions
12:53 AM 45.0 °F 41.2 °F 34.0 °F 65% 30.13 in 10.0 mi NW 6.9 mph - N/A   Clear
1:53 AM 45.0 °F 40.6 °F 34.0 °F 65% 30.13 in 10.0 mi NW 8.1 mph - N/A   Clear
2:53 AM 44.1 °F 39.0 °F 34.0 °F 68% 30.12 in 10.0 mi NNW 9.2 mph - N/A   Clear
3:53 AM 42.1 °F 37.1 °F 33.1 °F 70% 30.13 in 10.0 mi NW 8.1 mph - N/A   Clear
4:53 AM 41.0 °F 35.2 °F 33.1 °F 73% 30.13 in 10.0 mi WNW 9.2 mph - N/A   Clear
5:53 AM 39.9 °F 35.1 °F 33.1 °F 77% 30.14 in 10.0 mi NW 6.9 mph - N/A   Clear
6:53 AM 39.9 °F 35.1 °F 32.0 °F 73% 30.15 in 10.0 mi NW 6.9 mph - N/A   Clear
7:53 AM 42.1 °F 36.6 °F 33.1 °F 70% 30.16 in 10.0 mi NW 9.2 mph - N/A   Clear
8:53 AM 52.0 °F - 37.0 °F 57% 30.15 in 9.0 mi WNW 5.8 mph - N/A   Clear
9:53 AM 62.1 °F - 37.9 °F 41% 30.14 in 10.0 mi Variable 3.5 mph - N/A   Clear
10:53 AM 66.9 °F - 36.0 °F 32% 30.13 in 10.0 mi SSW 8.1 mph - N/A   Clear
11:53 AM 70.0 °F - 30.9 °F 24% 30.12 in 10.0 mi SSW 8.1 mph 17.3 mph N/A   Clear
12:53 PM 73.0 °F - 28.0 °F 19% 30.09 in 10.0 mi SSW 9.2 mph - N/A   Clear
1:53 PM 75.9 °F - 27.0 °F 16% 30.04 in 10.0 mi SW 4.6 mph 23.0 mph N/A   Scattered Clouds
2:53 PM 77.0 °F - 26.1 °F 15% 30.01 in 10.0 mi SSW 11.5 mph 21.9 mph N/A   Partly Cloudy
3:53 PM 79.0 °F - 26.1 °F 14% 29.98 in 10.0 mi WSW 21.9 mph 26.5 mph N/A   Scattered Clouds
4:53 PM 77.0 °F - 26.1 °F 15% 29.96 in 10.0 mi NNE 15.0 mph 20.7 mph N/A   Mostly Cloudy
5:53 PM 77.0 °F - 21.0 °F 12% 29.94 in 10.0 mi WSW 4.6 mph - N/A   Partly Cloudy
6:53 PM 78.1 °F - 21.0 °F 12% 29.93 in 10.0 mi SW 12.7 mph - N/A   Clear
7:53 PM 72.0 °F - 24.1 °F 17% 29.93 in 10.0 mi SW 6.9 mph - N/A   Clear
8:50 PM 66.2 °F - 23.0 °F 19% 30.02 in 2.5 mi WSW 10.4 mph - N/A   Haze
8:53 PM 66.0 °F - 23.0 °F 20% 29.92 in 4.0 mi WSW 10.4 mph - N/A   Haze
9:47 PM 62.6 °F - 26.6 °F 26% 30.04 in 1.8 mi West 9.2 mph - N/A   Haze
9:53 PM 61.0 °F - 26.1 °F 26% 29.93 in 1.5 mi West 9.2 mph - N/A   Haze
10:11 PM 60.8 °F - 26.6 °F 27% 30.04 in 2.0 mi West 8.1 mph - N/A   Haze
10:23 PM 62.6 °F - 24.8 °F 24% 30.05 in 7.0 mi WNW 8.1 mph - N/A   Clear
10:53 PM 57.9 °F - 25.0 °F 28% 29.93 in 10.0 mi WNW 9.2 mph - N/A   Clear
11:53 PM 54.0 °F - 21.9 °F 29% 29.94 in 10.0 mi NW 6.9 mph - N/A   Clear